Location: Nairn
(57.5833°N, 3.8667°W)
Time: 00:49:12
(UTC+00:00)

Sich 1 Rocket - Pass Details

Date: 07 August 2020
Orbit: 617 x 651 km, 82.5° (Epoch: 19 September)

Event Time Altitude Azimuth Distance (km) Brightness Sun altitude
Exits shadow 00:48:44 25° 157° (SSE) 1,271 4.7 -15.9°
Maximum altitude 00:51:01 49° 95° (E) 808 4.1 -15.8°
Drops below altitude 10° 00:55:17 10° 21° (NNE) 1,998 7.4 -15.7°
Sets 00:57:33 0° 16° (NNE) 2,908 8.8 -15.7°
